Flag for India

Past Weather in Medak, Telangana, India — Yesterday and Last 2 Weeks

Now
72 °F

Drizzle. Cloudy.


Feels Like: 65 °F
Forecast: 74 / 72 °F
Wind: 8 mph from West

Location: Hyderabad Airport
Current Time: Aug 13, 2020 at 10:57:20 am
Latest Report: Aug 13, 2020 at 10:00 am
Visibility: 2 mi
Pressure29.83 "Hg
Humidity: 100%
Dew Point: 72 °F
Location of MedakLocation

Past Weather in Medak — Graph

°F

Medak Temperature Yesterday

Maximum temperature yesterday: 82 °F (at 3:00 pm)
Minimum temperature yesterday: 73 °F (at 8:00 am)
Average temperature yesterday: 78 °F

High & Low Weather Summary for the Past Weeks

 TemperatureHumidityPressure
High90 °F (Jul 30, 3:00 pm)100% (Jul 29, 4:00 pm)29.83 "Hg (Jul 29, 4:00 pm)
Low70 °F (Aug 1, 4:00 pm)62% (Jul 30, 2:30 pm)29.47 "Hg (Aug 5, 4:30 pm)
Average79 °F85%29.71 "Hg
* Reported Jul 29 9:30 am — Aug 13 10:00 am, Medak. Weather by CustomWeather, © 2020

Note: Actual official high and low records may vary slightly from our data, if they occured in-between our weather recording intervals... More about our weather records

Medak Weather History for the Previous 24 Hours

Scroll right to see more
 ConditionsComfort  
Time TempWeatherWind HumidityBarometerVisibility
10:00 am
Thu, Aug 13
72 °FDrizzle. Cloudy.8 mph100%29.83 "Hg2 mi
9:30 am72 °FLight rain. Cloudy.7 mph94%29.83 "Hg2 mi
9:00 am72 °FLight rain. Cloudy.10 mph94%29.80 "Hg2 mi
9:00 pm
Wed, Aug 12
77 °FPartly cloudy.9 mph83%29.80 "Hg3 mi
8:30 pm77 °FPartly cloudy.10 mph83%29.80 "Hg3 mi
8:00 pm77 °FPartly cloudy.12 mph83%29.80 "Hg3 mi
7:30 pm77 °FPartly cloudy.8 mph83%29.77 "Hg3 mi
7:00 pm77 °FMostly cloudy.8 mph89%29.77 "Hg3 mi
6:30 pm77 °FMostly cloudy.8 mph89%29.77 "Hg3 mi
6:00 pm77 °FMostly cloudy.8 mph89%29.77 "Hg3 mi
5:30 pm77 °FMostly cloudy.8 mph89%29.74 "Hg3 mi
5:00 pm81 °FMostly cloudy.12 mph84%29.74 "Hg3 mi
4:30 pm79 °FMostly cloudy.12 mph84%29.74 "Hg3 mi
4:00 pm81 °FRain. Mostly cloudy.16 mph79%29.74 "Hg3 mi
3:30 pm81 °FMostly cloudy.10 mph79%29.77 "Hg4 mi
3:00 pm82 °FMostly cloudy.14 mph79%29.77 "Hg4 mi
2:30 pm81 °FMostly cloudy.13 mph79%29.77 "Hg4 mi
2:00 pm79 °FMostly cloudy.14 mph84%29.80 "Hg4 mi
1:30 pm79 °FMostly cloudy.12 mph84%29.80 "Hg4 mi
1:00 pm79 °FMostly cloudy.12 mph84%29.83 "Hg4 mi
12:30 pm79 °FMostly cloudy.9 mph84%29.83 "Hg4 mi
12:00 pm79 °FMore clouds than sun.13 mph84%29.83 "Hg4 mi
11:30 am77 °FBroken clouds.16 mph83%29.83 "Hg3 mi
11:00 am77 °FBroken clouds.13 mph83%29.83 "Hg3 mi
10:30 am77 °FBroken clouds.12 mph83%29.83 "Hg3 mi
10:00 am75 °FBroken clouds.10 mph89%29.83 "Hg3 mi
Weather by CustomWeather, © 2020

See weather overview